• In Russia
  • List of Countries
  • For 7 days
  • Water Temperature
  • Satellite Maps
  • Weather Map
  • Weather Widgets
  • user-avatar
    Login

    Hourly Weather Klagenfurt

    Today, 21 July, Friday

    Time Temperature Precipitation Wind Pressure Humidity
    00:00 +18°C° 0.3 mm 1 mps 689 mmHg 89%
    01:00 +16°C° 0.3 mm 1 mps 690 mmHg 90%
    02:00 +16°C° 0.2 mm 1 mps 690 mmHg 91%
    03:00 +15°C° 0.2 mm 1 mps 690 mmHg 91%
    04:00 +15°C° 0.2 mm 1 mps 690 mmHg 92%
    05:00 +18°C° 0 mm 1 mps 690 mmHg 87%
    06:00 +19°C° 0 mm 1 mps 690 mmHg 82%
    07:00 +19°C° 0 mm 0 mps 691 mmHg 77%
    08:00 +23°C° 0.1 mm 1 mps 691 mmHg 69%
    09:00 +25°C° 0.1 mm 1 mps 692 mmHg 60%
    10:00 +27°C° 0.1 mm 1 mps 692 mmHg 52%
    11:00 +27°C° 0.5 mm 1 mps 692 mmHg 51%
    12:00 +28°C° 0.5 mm 2 mps 692 mmHg 50%
    13:00 +28°C° 0.5 mm 2 mps 692 mmHg 49%
    14:00 +28°C° 0.3 mm 2 mps 691 mmHg 48%
    15:00 +28°C° 0.3 mm 2 mps 691 mmHg 47%
    16:00 +28°C° 0.3 mm 2 mps 691 mmHg 45%
    17:00 +27°C° 0 mm 2 mps 691 mmHg 53%
    18:00 +25°C° 0 mm 1 mps 690 mmHg 61%
    19:00 +23°C° 0 mm 1 mps 690 mmHg 69%
    20:00 +22°C° 0 mm 1 mps 690 mmHg 72%
    21:00 +20°C° 0 mm 1 mps 690 mmHg 74%
    22:00 +19°C° 0 mm 1 mps 690 mmHg 77%
    23:00 +18°C° 0 mm 1 mps 690 mmHg 77%

    Tomorrow, 22 July, Saturday

    Time Temperature Precipitation Wind Pressure Humidity
    00:00 +18°C° 0 mm 1 mps 689 mmHg 77%
    01:00 +16°C° 0 mm 1 mps 689 mmHg 77%
    02:00 +16°C° 0 mm 1 mps 689 mmHg 76%
    03:00 +16°C° 0 mm 1 mps 689 mmHg 75%
    04:00 +15°C° 0 mm 0 mps 689 mmHg 73%
    05:00 +16°C° 0 mm 0 mps 690 mmHg 70%
    06:00 +18°C° 0 mm 0 mps 690 mmHg 68%
    07:00 +19°C° 0 mm 0 mps 691 mmHg 65%
    08:00 +24°C° 0 mm 1 mps 691 mmHg 58%
    09:00 +26°C° 0 mm 1 mps 692 mmHg 51%
    10:00 +28°C° 0 mm 1 mps 692 mmHg 44%
    11:00 +29°C° 0 mm 1 mps 692 mmHg 43%
    12:00 +29°C° 0 mm 2 mps 692 mmHg 42%
    13:00 +30°C° 0 mm 2 mps 692 mmHg 41%
    14:00 +30°C° 0 mm 2 mps 692 mmHg 43%
    15:00 +29°C° 0 mm 2 mps 692 mmHg 45%
    16:00 +29°C° 0 mm 2 mps 691 mmHg 47%
    17:00 +27°C° 0.1 mm 1 mps 691 mmHg 56%
    18:00 +25°C° 0.1 mm 1 mps 691 mmHg 66%
    19:00 +23°C° 0.1 mm 1 mps 691 mmHg 76%
    20:00 +22°C° 0.1 mm 1 mps 691 mmHg 80%
    21:00 +21°C° 0.1 mm 1 mps 691 mmHg 84%
    22:00 +19°C° 0.1 mm 1 mps 691 mmHg 89%
    23:00 +19°C° 0.1 mm 1 mps 691 mmHg 90%

    Day after tomorrow, 23 July, Sunday

    Time Temperature Precipitation Wind Pressure Humidity
    00:00 +18°C° 0.1 mm 1 mps 690 mmHg 91%
    01:00 +18°C° 0.1 mm 1 mps 690 mmHg 91%
    02:00 +16°C° 0 mm 1 mps 690 mmHg 91%
    03:00 +16°C° 0 mm 1 mps 690 mmHg 91%
    04:00 +16°C° 0 mm 1 mps 690 mmHg 91%
    05:00 +18°C° 0 mm 1 mps 691 mmHg 86%
    06:00 +20°C° 0 mm 1 mps 691 mmHg 81%
    07:00 +22°C° 0 mm 1 mps 691 mmHg 76%
    08:00 +24°C° 0.1 mm 1 mps 692 mmHg 68%
    09:00 +26°C° 0.1 mm 1 mps 692 mmHg 59%
    10:00 +29°C° 0.1 mm 1 mps 692 mmHg 51%
    11:00 +29°C° 0.3 mm 1 mps 692 mmHg 51%
    12:00 +30°C° 0.3 mm 1 mps 692 mmHg 51%
    13:00 +30°C° 0.3 mm 1 mps 692 mmHg 50%
    14:00 +29°C° 0.7 mm 1 mps 692 mmHg 53%
    15:00 +29°C° 0.7 mm 1 mps 691 mmHg 56%
    16:00 +28°C° 0.7 mm 1 mps 691 mmHg 58%
    17:00 +26°C° 0.7 mm 1 mps 691 mmHg 65%
    18:00 +25°C° 0.7 mm 1 mps 691 mmHg 72%
    19:00 +23°C° 0.7 mm 1 mps 691 mmHg 79%
    20:00 +22°C° 0.3 mm 1 mps 690 mmHg 83%
    21:00 +20°C° 0.3 mm 1 mps 690 mmHg 86%
    22:00 +19°C° 0.3 mm 1 mps 690 mmHg 89%
    23:00 +18°C° 0 mm 1 mps 690 mmHg 90%

    24 July, Monday

    Time Temperature Precipitation Wind Pressure Humidity
    00:00 +18°C° 0 mm 1 mps 689 mmHg 91%
    01:00 +18°C° 0 mm 1 mps 689 mmHg 92%
    02:00 +18°C° 0.4 mm 1 mps 689 mmHg 92%
    03:00 +18°C° 0.4 mm 1 mps 689 mmHg 92%
    04:00 +16°C° 0.4 mm 1 mps 688 mmHg 93%
    05:00 +18°C° 1.9 mm 1 mps 688 mmHg 92%
    06:00 +18°C° 1.9 mm 1 mps 688 mmHg 92%
    07:00 +19°C° 1.9 mm 1 mps 688 mmHg 92%
    08:00 +20°C° 1.7 mm 1 mps 688 mmHg 90%
    09:00 +20°C° 1.7 mm 1 mps 688 mmHg 88%
    10:00 +21°C° 1.7 mm 1 mps 688 mmHg 86%
    11:00 +22°C° 1.6 mm 1 mps 688 mmHg 84%
    12:00 +23°C° 1.6 mm 1 mps 687 mmHg 81%
    13:00 +23°C° 1.6 mm 1 mps 687 mmHg 79%
    14:00 +23°C° 3.4 mm 1 mps 687 mmHg 83%
    15:00 +22°C° 3.4 mm 1 mps 686 mmHg 87%
    16:00 +21°C° 3.4 mm 1 mps 686 mmHg 91%
    17:00 +20°C° 4.3 mm 1 mps 685 mmHg 92%
    18:00 +19°C° 4.3 mm 1 mps 685 mmHg 94%
    19:00 +18°C° 4.3 mm 1 mps 685 mmHg 95%
    20:00 +18°C° 4.8 mm 1 mps 685 mmHg 95%
    21:00 +16°C° 4.8 mm 1 mps 686 mmHg 96%
    22:00 +15°C° 4.8 mm 2 mps 686 mmHg 96%
    23:00 +14°C° 0.2 mm 1 mps 686 mmHg 96%

    25 July, Tuesday

    Time Temperature Precipitation Wind Pressure Humidity
    00:00 +14°C° 0.2 mm 1 mps 686 mmHg 96%
    01:00 +13°C° 0.2 mm 1 mps 686 mmHg 95%
    02:00 +13°C° 0 mm 1 mps 685 mmHg 95%
    03:00 +12°C° 0 mm 1 mps 685 mmHg 95%
    04:00 +12°C° 0 mm 1 mps 685 mmHg 95%
    05:00 +13°C° 0 mm 1 mps 685 mmHg 93%
    06:00 +13°C° 0 mm 1 mps 686 mmHg 91%
    07:00 +14°C° 0 mm 1 mps 686 mmHg 89%
    08:00 +16°C° 0 mm 1 mps 686 mmHg 77%
    09:00 +19°C° 0 mm 1 mps 687 mmHg 65%
    10:00 +21°C° 0 mm 1 mps 688 mmHg 53%
    11:00 +22°C° 0 mm 1 mps 688 mmHg 51%
    12:00 +23°C° 0 mm 1 mps 688 mmHg 49%
    13:00 +23°C° 0 mm 1 mps 688 mmHg 48%
    14:00 +23°C° 0.2 mm 1 mps 688 mmHg 51%
    15:00 +22°C° 0.2 mm 1 mps 687 mmHg 55%
    16:00 +22°C° 0.2 mm 1 mps 687 mmHg 59%
    17:00 +20°C° 0.3 mm 1 mps 687 mmHg 65%
    18:00 +19°C° 0.3 mm 1 mps 687 mmHg 72%
    19:00 +18°C° 0.3 mm 1 mps 687 mmHg 78%
    20:00 +16°C° 0.2 mm 1 mps 688 mmHg 79%
    21:00 +15°C° 0.2 mm 1 mps 688 mmHg 81%
    22:00 +14°C° 0.2 mm 1 mps 688 mmHg 82%
    23:00 +13°C° 0.1 mm 1 mps 688 mmHg 83%

    26 July, Wednesday

    Time Temperature Precipitation Wind Pressure Humidity
    00:00 +13°C° 0.1 mm 1 mps 689 mmHg 84%
    01:00 +13°C° 0.1 mm 1 mps 689 mmHg 85%
    02:00 +12°C° 0 mm 1 mps 689 mmHg 85%
    03:00 +12°C° 0 mm 1 mps 689 mmHg 86%
    04:00 +11°C° 0 mm 1 mps 689 mmHg 86%
    05:00 +12°C° 0 mm 1 mps 689 mmHg 83%
    06:00 +13°C° 0 mm 1 mps 690 mmHg 79%
    07:00 +14°C° 0 mm 1 mps 690 mmHg 76%
    08:00 +18°C° 0 mm 1 mps 690 mmHg 65%
    09:00 +21°C° 0 mm 1 mps 691 mmHg 55%
    10:00 +22°C° 0 mm 0 mps 692 mmHg 45%
    11:00 +23°C° 0 mm 0 mps 692 mmHg 43%
    12:00 +25°C° 0 mm 1 mps 691 mmHg 41%
    13:00 +26°C° 0 mm 1 mps 691 mmHg 39%
    14:00 +26°C° 0 mm 1 mps 691 mmHg 40%
    15:00 +25°C° 0 mm 1 mps 691 mmHg 41%
    16:00 +24°C° 0 mm 1 mps 691 mmHg 43%
    17:00 +23°C° 0 mm 1 mps 690 mmHg 52%
    18:00 +21°C° 0 mm 1 mps 690 mmHg 61%
    19:00 +17°C° 0 mm 0 mps 690 mmHg 70%
    20:00 +16°C° 0 mm 0 mps 690 mmHg 73%
    21:00 +14°C° 0 mm 0 mps 690 mmHg 76%
    22:00 +13°C° 0 mm 0 mps 690 mmHg 79%
    23:00 +13°C° 0 mm 0 mps 690 mmHg 80%
    Show more